sat.trackr.live / text

‹ back to catalog

STARLINK-5763

NORAD 56505 · 2023-065C

PAYLOAD ACTIVE UNKNOWN

§ Identity

Operator
Country
US
Launch date
2023-05-14
Launch site
AFETR
Launch vehicle
Mass (kg)
RCS (m²)

Purposes: comms

External: N2YO · Heavens-Above · Gunter

§ Orbital elements

Epoch: 2026-09-20T04:46:19.661952Z

Period
94.27 min
Inclination
43.0032°
Eccentricity
0.0001235
Mean motion
15.27574566 rev/d
Perigee alt
482.2 km
Apogee alt
483.9 km
Semi-major
6,861.2 km
B*
3.0029e-5
RAAN
194.3230°
Arg perigee
271.9048°
Mean anomaly
88.1662°
Rev number
18,634

§ Raw data

STARLINK-57631 56505U 23065C   26263.19883868  .00000564  00000+0  30029-4 0  99992 56505  43.0032 194.3230 0001235 271.9048  88.1662 15.27574566186340

JSON: /api/v1/satellites/56505 · /tle

For live sub-satellite position, see the globe view (requires WebGL).

§ Visibility from observer

Set your observer location to see the next 7 days of passes ≥ 10°. The values pass through the URL so the page stays shareable.

No JS? Fill the form by hand. The geolocation button needs JavaScript.